Snowfall_Accumulation
0.0 0.0 0.0 0.0 0.0 0.0 0.0 0.0 0.0 0.0 0.0 0.0 0.0 0.0 0.0 0.0 0.0 0.0 0.0 0.0 0.0 0.0 0.0 0.0 0.0 0.0 0.0 0.0 0.0 0.0 0.0 0.0 0.0 0.0 0.0 0.0 0.0 0.0 0.0 0.0 0.0 0.0 0.0 0.0 0.0 0.0 0.0
0.0 0.0 0.0 0.0 0.0 0.0 0.0 0.0 0.0 0.0 0.0 0.0 0.0 0.0 0.0 0.0 0.0 0.0 0.0 0.0 0.0 0.0 0.0 0.0 0.0 0.0 0.0 0.0 0.0 0.0 0.0 0.0 0.0 0.0 0.0 0.0 0.0 0.0 0.0 0.0 0.0 0.0 0.0 0.0 0.0 0.0 0.0
0.0 0.0 0.0 0.0 0.0 0.0 0.0 0.0 0.0 0.0 0.0 0.0 0.0 0.0 0.0 0.0 0.0 0.0 0.0 0.0 0.0 0.0 0.0 0.0 0.0 0.0 0.0 0.0 0.0 0.0 0.0 0.0 0.0 0.0 0.0 0.0 0.0 0.0 0.0 0.0 0.0 0.0 0.0 0.0 0.0 0.0 0.0
0.0 0.0 0.0 0.0 0.0 0.0 0.0 0.0 0.0 0.0 0.0 0.0 0.0 0.0 0.0 0.0 0.0 0.0 0.0 0.0 0.0 0.0 0.0 0.0 0.0 0.0 0.0 0.0 0.0 0.0 0.0 0.0 0.0 0.0 0.0 0.0 0.0 0.0 0.0 0.0 0.0 0.0 0.0 0.8 0.0 0.0 0.0
0.0 0.0 0.0 0.0 0.0 0.0 0.0 0.0 0.0 0.0 0.0 0.0 0.0 0.0 0.0 0.0 0.0 0.0 0.0 0.0 0.0 0.0 0.0 0.0 0.0 0.0 0.0 0.0 0.0 0.0 0.0 0.0 0.0 0.0 0.0 0.0 0.0 0.0 0.0 1.1 0.9 0.4 2.5 2.6 0.0 0.0 0.0
0.0 0.0 0.0 0.0 0.0 0.0 0.0 0.0 0.0 0.0 0.0 0.0 0.0 0.0 0.0 0.0 0.0 0.0 0.0 0.0 0.0 0.0 0.0 0.0 0.0 0.0 0.0 0.0 0.0 0.0 0.0 0.0 0.0 0.0 0.0 0.0 0.0 0.0 0.0 1.3 4.0 1.6 1.6 1.3 0.0 0.0 0.0
0.0 0.0 0.0 0.0 0.0 0.0 0.0 0.0 0.0 0.0 0.0 0.0 0.0 0.0 0.0 0.0 0.0 0.0 0.0 0.0 0.0 0.0 0.0 0.0 0.0 0.0 0.0 0.0 0.0 0.0 0.0 0.0 0.0 0.0 0.0 0.0 0.3 2.2 2.4 0.0 0.0 0.0 0.0 1.9 0.0 0.0 0.0
0.0 0.0 0.0 0.0 0.0 0.0 0.0 0.0 0.0 0.0 0.0 0.0 0.0 0.0 0.0 0.0 0.0 0.0 0.0 0.0 0.0 0.0 0.0 0.0 0.0 0.0 0.0 0.0 0.0 0.0 0.0 0.0 0.0 0.3 0.0 0.0 0.4 0.0 0.0 0.0 0.0 0.0 0.1 0.9 0.0 0.0 0.0
0.0 0.0 0.0 0.0 0.0 0.0 0.0 0.0 0.0 0.0 0.0 0.0 0.0 0.0 0.0 0.0 0.0 0.0 0.0 0.0 0.0 0.0 0.0 0.0 0.0 0.0 0.0 0.0 0.0 0.0 0.0 0.0 0.0 0.0 0.0 0.2 0.0 0.0 0.0 0.0 0.1 0.0 0.1 0.0 0.5 0.0 0.0
0.0 0.0 0.0 0.0 0.0 0.0 0.0 0.0 0.0 0.0 0.0 0.0 0.0 0.0 0.0 0.0 0.0 0.0 0.0 0.0 0.0 0.0 6.9 4.9 0.0 0.0 0.0 0.0 0.0 0.0 0.0 0.0 0.0 1.0 0.0 0.0 0.0 0.0 0.0 0.0 0.0 0.5 0.0 0.0 0.0 0.7 4.5
0.0 0.0 0.0 0.0 0.0 0.0 0.0 0.0 0.0 0.0 0.0 0.0 0.0 0.0 0.0 0.0 0.0 0.0 0.0 0.0 0.0 0.0 21.1 3.8 0.0 0.0 0.0 0.0 0.0 0.0 0.0 0.0 0.0 0.0 0.0 0.8 0.0 0.0 0.0 0.0 0.0 0.0 0.0 0.0 0.0 0.7 4.1
0.0 0.0 0.0 0.0 0.0 0.0 0.0 0.0 0.0 0.0 0.0 0.0 0.0 0.0 0.0 0.0 0.0 0.0 0.0 0.0 0.0 14.7 27.5 7.8 0.0 0.0 0.0 0.0 0.0 0.0 0.0 0.0 0.0 0.0 0.0 0.0 0.0 0.0 0.0 0.0 0.0 0.0 0.0 0.0 0.0 0.7 12.2
0.0 0.0 0.0 0.0 0.0 0.0 0.0 0.0 0.0 0.0 0.0 0.0 0.0 0.0 0.0 0.0 0.0 0.0 0.0 0.0 14.5 16.6 2.0 3.6 1.6 0.0 0.0 0.0 0.0 0.0 0.0 0.0 0.7 15.2 13.5 2.6 0.0 0.0 0.0 0.0 0.0 0.0 0.7 11.5 11.0 12.3 7.4
0.0 0.0 0.0 0.0 0.0 0.0 0.0 0.0 0.0 0.0 0.0 0.0 0.0 0.0 0.0 0.0 0.0 0.0 0.0 2.9 10.9 6.7 4.1 0.0 0.0 0.0 0.2 0.0 0.0 0.0 0.8 2.9 0.0 2.5 4.6 9.4 11.2 1.1 0.0 0.0 0.0 0.0 0.2 8.4 8.1 5.4 3.6
0.0 0.0 0.0 0.0 0.0 0.0 0.0 0.0 0.0 0.0 0.0 0.0 0.0 0.0 0.0 0.0 0.0 0.0 0.0 11.0 15.5 4.7 0.0 0.0 0.0 0.5 0.2 0.0 0.0 0.0 1.6 1.4 0.0 0.1 3.6 3.9 2.7 0.0 0.0 0.0 0.0 0.6 3.1 0.0 3.7 2.6 6.4
0.0 0.0 0.0 0.0 0.0 0.0 0.0 0.0 0.0 0.0 0.0 0.0 0.0 0.0 0.0 0.0 0.0 0.0 6.2 8.2 4.6 0.0 0.0 0.0 0.2 0.0 0.1 0.0 0.1 0.5 0.4 0.0 0.0 0.0 0.0 1.5 3.1 0.0 0.0 0.0 0.0 0.0 0.0 4.7 9.4 10.4 8.1
0.0 0.0 0.0 0.0 0.0 0.0 0.0 0.0 0.0 0.0 0.0 0.0 0.0 2.0 0.0 0.0 0.0 0.0 10.3 6.7 0.6 0.0 0.0 0.0 0.1 0.1 0.0 0.0 0.0 0.0 0.0 0.0 0.0 0.0 0.0 0.0 1.9 1.3 0.0 0.3 0.3 0.6 2.6 1.7 2.5 3.7 7.0
0.0 0.0 0.0 0.0 0.0 0.0 0.0 0.0 0.0 0.0 0.0 0.0 0.0 13.0 0.0 0.0 4.6 3.4 3.5 3.1 0.0 0.0 0.0 0.0 0.0 0.1 0.3 0.1 0.6 0.3 0.1 0.0 0.0 0.0 0.8 0.1 1.9 4.7 0.9 0.0 0.0 0.0 1.5 1.8 8.1 6.6 2.4
0.0 0.0 0.0 0.0 0.0 0.0 0.0 0.0 0.0 0.0 0.0 0.0 0.5 2.6 0.0 0.0 7.0 2.7 0.0 0.0 0.0 0.0 0.0 0.0 0.2 0.1 0.1 0.2 2.9 0.3 0.3 0.0 0.0 0.0 1.1 1.3 3.0 4.8 3.4 0.2 0.0 1.3 1.2 1.8 1.9 8.4 8.2
0.0 0.0 0.0 0.0 0.0 0.0 0.0 0.0 0.0 0.0 0.0 0.0 0.0 11.4 0.0 0.0 0.0 0.2 0.8 1.2 0.9 0.0 0.0 0.0 0.2 0.1 0.4 0.6 0.3 3.4 0.8 0.0 0.0 0.0 0.0 0.9 6.5 9.1 11.8 4.7 3.0 3.2 1.0 0.6 4.9 21.5 7.2
0.0 0.0 0.0 0.0 0.0 0.0 0.0 0.0 0.0 0.0 0.0 0.0 1.0 3.4 0.0 6.0 1.1 1.2 1.6 3.5 1.7 1.3 0.0 0.0 1.1 0.4 1.1 5.2 1.4 0.4 0.1 0.0 0.0 0.0 0.0 1.4 12.7 7.2 1.4 0.9 3.5 3.3 2.1 1.5 5.4 1.5 6.2
0.0 0.0 0.0 0.0 0.0 0.0 0.0 0.0 0.0 0.0 0.0 0.0 1.7 1.4 1.0 1.3 0.3 0.8 2.5 4.2 1.0 0.0 1.5 1.4 1.6 0.2 1.3 6.4 2.2 3.9 2.8 1.6 1.6 0.5 1.0 2.2 11.4 6.8 5.1 1.4 1.6 3.0 1.5 1.6 2.5 0.7 3.9
0.0 0.0 0.0 0.0 0.0 0.0 0.0 0.0 0.0 0.0 0.0 0.0 0.0 0.0 1.3 2.4 1.7 3.1 2.3 0.8 0.6 0.3 0.2 0.1 0.6 4.0 3.9 0.4 0.3 0.8 1.4 2.6 1.8 2.7 1.6 7.5 10.0 14.5 15.4 1.0 1.9 7.9 2.6 1.5 2.7 4.1 5.8
0.0 0.0 0.0 0.0 0.0 0.0 0.0 0.0 0.0 0.0 0.0 0.0 0.0 0.0 6.0 8.6 2.0 0.6 0.2 0.8 1.8 1.4 6.6 1.8 2.7 6.3 3.2 1.7 2.9 3.1 3.8 4.9 4.8 3.6 3.1 9.1 11.8 21.1 23.7 11.2 24.1 2.9 1.0 1.9 4.6 6.2 6.7
0.0 0.0 0.0 0.0 0.0 0.0 0.0 0.0 0.0 0.0 0.0 0.0 0.0 0.0 7.3 13.2 1.6 0.8 0.0 0.0 0.5 2.4 3.6 3.6 2.7 2.5 2.0 4.0 7.7 7.7 4.1 4.0 3.1 3.8 4.8 6.4 15.4 30.4 25.6 13.7 2.1 3.4 2.7 4.2 6.7 6.3 7.4
0.0 0.0 0.0 0.0 0.0 0.0 0.0 0.0 0.0 0.0 0.0 0.0 0.0 0.0 4.4 16.1 4.0 0.4 2.2 1.7 5.3 3.7 4.2 2.5 2.9 2.4 2.7 6.4 10.8 12.6 5.8 2.0 2.8 2.9 1.9 4.8 11.9 25.7 19.0 21.3 12.2 5.4 1.2 5.6 12.1 14.2 4.3
0.0 0.0 0.0 0.0 0.0 0.0 0.0 0.0 0.0 0.0 0.0 0.0 0.0 0.0 0.0 17.8 2.1 0.6 5.4 6.3 2.3 4.9 9.9 3.1 3.9 5.1 4.4 11.7 14.5 12.4 7.9 4.0 10.5 2.7 0.8 5.2 11.6 18.3 13.4 27.4 14.2 5.4 2.3 4.6 23.7 13.7 3.9
0.0 0.0 0.0 0.0 0.0 0.0 0.0 0.0 0.0 0.0 0.0 0.0 0.0 0.0 0.0 14.8 4.6 1.7 2.5 3.6 5.8 6.3 12.4 8.0 11.6 7.9 8.5 12.3 11.3 6.4 9.3 7.2 5.3 3.1 3.3 5.1 10.4 12.5 14.5 21.5 15.2 2.1 2.9 6.1 13.0 6.5 5.7
0.0 0.0 0.0 0.0 0.0 0.0 0.0 0.0 0.0 0.0 0.0 0.0 0.0 0.0 0.0 7.5 10.0 1.4 2.2 2.5 4.2 5.6 8.2 10.4 8.4 7.1 11.6 16.0 10.5 12.9 8.4 4.6 3.2 7.2 1.8 9.7 10.6 13.0 13.2 13.6 11.5 8.0 8.5 8.6 6.2 5.1 4.2